Location: Arthez
(43.0833°N, 0.2500°W)
Time: 14:13:45
(UTC+00:00)

NOSS 3-1 (A) - Pass Details

Date: 12 December 2023
Orbit: 665 x 1546 km, 63.4° (Epoch: 18 February)

Event Time Altitude Azimuth Distance (km) Brightness Sun altitude
Exits shadow 06:35:14 - 325° (NW) 3,036 5.6 -8.6°
Reaches altitude 10° 06:37:20 10° 341° (NNW) 2,737 5.5 -8.2°
Maximum altitude 06:40:03 13° 6° (N) 2,671 5.6 -7.7°
Drops below altitude 10° 06:42:59 10° 31° (NNE) 3,008 6.1 -7.3°
Sets 06:48:05 0° 58° (ENE) 4,203 7.3 -6.4°
